Location: Balaclava NSW 2575, Australia
(34.4510°S, 150.4953°E)
Time: 12:15:22
(UTC+10:00)

XW-2C - Pass Details

Date: 01 August 2021
Orbit: 506 x 524 km, 97.5° (Epoch: 18 September)

Event Time Altitude Azimuth Distance (km) Brightness Sun altitude
Rises 17:51:51 0° 169° (SSE) 2,666 ? -7.5°
Reaches altitude 10° 17:53:58 10° 168° (SSE) 1,767 ? -8.0°
Maximum altitude 17:57:47 88° 77° (ENE) 524 ? -8.7°
Drops below altitude 10° 18:01:32 10° 348° (NNW) 1,729 ? -9.5°
Sets 18:03:35 0° 348° (NNW) 2,604 ? -9.9°
